Location: *
(45.4590°N, 16.3650°E)
Time: 09:38:20
(UTC+00:00)

STARLINK-1123 - Pass Details

Date: 17 January 2020
Orbit: 549 x 551 km, 53.0° (Epoch: 28 February)

Event Time Altitude Azimuth Distance (km) Brightness Sun altitude
Rises 15:59:51 0° 218° (SW) 2,706 8.5 -4.0°
Reaches altitude 10° 16:02:08 10° 212° (SSW) 1,816 7.3 -4.4°
Maximum altitude 16:06:04 45° 140° (SE) 760 4.2 -5.0°
Drops below altitude 10° 16:10:02 10° 67° (ENE) 1,828 5.6 -5.6°
Enters shadow 16:10:39 - 65° (ENE) 2,064 5.8 -5.7°
